timestamp,surface_pressure_avg,surface_temp_avg,battery_voltage,lat,long
2020-05-22 00:09:01+00:00,346.548,5.4,13.29,47.84626,-54.09684
2020-05-22 00:19:01+00:00,348.57300000000015,5.4,12.89,47.84626,-54.09684
2020-05-22 00:29:01+00:00,343.1380000000001,5.4,12.89,47.84626,-54.09684
2020-05-22 00:39:01+00:00,332.8713,5.42,12.89,47.84626,-54.09684
2020-05-22 00:49:01+00:00,328.7414,5.4,12.89,47.84626,-54.09684
2020-05-22 00:59:01+00:00,330.6613,5.39,12.89,47.84626,-54.09684
2020-05-22 01:09:01+00:00,324.5397,5.4,12.89,47.84626,-54.09684
2020-05-22 01:19:01+00:00,318.5447,5.43,12.73,47.84626,-54.09684
2020-05-22 01:29:01+00:00,317.2713,5.44,12.73,47.84626,-54.09684
2020-05-22 01:39:01+00:00,315.5597,5.44,12.73,47.84626,-54.09684
2020-05-22 01:49:01+00:00,305.4963,5.47,12.73,47.84626,-54.09684
2020-05-22 01:59:01+00:00,297.9564,5.47,12.73,47.84626,-54.09684
2020-05-22 02:09:01+00:00,294.1196,5.48,12.73,47.84626,-54.09684
2020-05-22 02:19:01+00:00,289.1614,5.49,12.65,47.84626,-54.09684
2020-05-22 02:29:01+00:00,278.8647,5.49,12.65,47.84626,-54.09684
2020-05-22 02:39:01+00:00,269.7281,5.5,12.65,47.84626,-54.09684
2020-05-22 02:49:01+00:00,260.9681,5.5,12.65,47.84626,-54.09684
2020-05-22 02:59:01+00:00,252.8064,5.5,12.65,47.84626,-54.09684
2020-05-22 03:09:01+00:00,245.2614,5.5,12.65,47.84626,-54.09684
2020-05-22 03:19:01+00:00,238.7481,5.5,12.65,47.84626,-54.09684
2020-05-22 03:29:01+00:00,232.9097,5.5,12.65,47.84626,-54.09684
2020-05-22 03:39:01+00:00,227.0264,5.5,12.65,47.84626,-54.09684
2020-05-22 03:49:01+00:00,221.3948,5.5,12.65,47.84626,-54.09684
2020-05-22 03:59:01+00:00,216.1215,5.5,12.65,47.84626,-54.09684
2020-05-22 04:09:01+00:00,212.5265,5.5,12.65,47.84626,-54.09684
2020-05-22 04:19:01+00:00,207.0281,5.5,12.65,47.84626,-54.09684
2020-05-22 04:29:01+00:00,200.8464,5.5,12.65,47.84626,-54.09684
2020-05-22 04:39:01+00:00,198.4398,5.5,12.65,47.84626,-54.09684
2020-05-22 04:49:01+00:00,199.7281,5.49,12.65,47.84626,-54.09684
2020-05-22 04:59:01+00:00,196.9398,5.49,12.65,47.84626,-54.09684
2020-05-22 05:09:01+00:00,192.6865,5.49,12.65,47.84626,-54.09684
2020-05-22 05:19:01+00:00,194.5832,5.49,12.65,47.84626,-54.09684
2020-05-22 05:29:01+00:00,195.8381,5.49,12.65,47.84626,-54.09684
2020-05-22 05:39:01+00:00,192.1315,5.49,12.65,47.84626,-54.09684
2020-05-22 05:49:01+00:00,191.7331,5.49,12.65,47.84626,-54.09684
2020-05-22 05:59:01+00:00,195.4398,5.48,12.65,47.84626,-54.09684
2020-05-22 06:09:01+00:00,198.7164,5.48,12.65,47.84626,-54.09684
2020-05-22 06:19:01+00:00,199.0381,5.48,12.65,47.84626,-54.09684
2020-05-22 06:29:01+00:00,199.4348,5.48,12.65,47.84626,-54.09684
2020-05-22 06:39:01+00:00,205.3348,5.48,12.65,47.84626,-54.09684
2020-05-22 06:49:01+00:00,212.2581,5.45,12.65,47.84626,-54.09684
2020-05-22 06:59:01+00:00,213.4398,5.42,12.65,47.84626,-54.09684
2020-05-22 07:09:01+00:00,214.8781,5.4,12.65,47.84626,-54.09684
2020-05-22 07:19:01+00:00,224.7798,5.4,12.57,47.84626,-54.09684
2020-05-22 07:29:01+00:00,230.7598,5.4,12.57,47.84626,-54.09684
2020-05-22 07:39:01+00:00,230.3281,5.39,12.57,47.84626,-54.09684
2020-05-22 07:49:01+00:00,235.6381,5.38,12.57,47.84626,-54.09684
2020-05-22 07:59:01+00:00,248.7415,5.34,12.57,47.84626,-54.09684
2020-05-22 08:09:01+00:00,255.8964,5.31,12.57,47.84626,-54.09684
2020-05-22 08:19:01+00:00,256.8714,5.3,12.57,47.84626,-54.09684
2020-05-22 08:29:01+00:00,264.2797,5.3,12.57,47.84626,-54.09684
2020-05-22 08:39:01+00:00,273.4098,5.3,12.57,47.84626,-54.09684
2020-05-22 08:49:01+00:00,278.123,5.3,12.57,47.84626,-54.09684
2020-05-22 08:59:01+00:00,277.4598,5.3,12.57,47.84626,-54.09684
2020-05-22 09:09:01+00:00,284.4981,5.3,12.57,47.84626,-54.09684
2020-05-22 09:19:01+00:00,290.3697,5.3,12.57,47.84626,-54.09684
2020-05-22 09:29:01+00:00,296.148,5.3,12.57,47.84626,-54.09684
2020-05-22 09:39:01+00:00,300.5264,5.3,12.57,47.84626,-54.09684
2020-05-22 09:49:01+00:00,310.5797,5.3,12.57,47.84626,-54.09684
2020-05-22 09:59:01+00:00,317.5096,5.3,12.57,47.84626,-54.09684
2020-05-22 10:09:01+00:00,321.6429,5.3,12.57,47.84626,-54.09684
2020-05-22 10:19:01+00:00,325.1013,5.3,12.57,47.84626,-54.09684
2020-05-22 10:29:01+00:00,332.208,5.3,12.57,47.84626,-54.09684
2020-05-22 10:39:01+00:00,335.0997,5.3,12.57,47.84626,-54.09684
2020-05-22 10:49:01+00:00,333.9548,5.3,12.57,47.84626,-54.09684
2020-05-22 10:59:01+00:00,329.8397,5.3,12.57,47.84626,-54.09684
2020-05-22 11:09:01+00:00,331.4213,5.3,12.57,47.84626,-54.09684
2020-05-22 11:19:01+00:00,338.353,5.3,12.57,47.84626,-54.09684
2020-05-22 11:29:01+00:00,343.5879,5.33,12.57,47.84626,-54.09684
2020-05-22 11:39:01+00:00,337.8729,5.3,12.57,47.84626,-54.09684
2020-05-22 11:49:01+00:00,337.1296,5.3,12.57,47.84626,-54.09684
2020-05-22 11:59:01+00:00,339.778,5.34,12.57,47.84626,-54.09684
2020-05-22 12:09:01+00:00,337.7797,5.36,12.57,47.84626,-54.09684
2020-05-22 12:19:01+00:00,328.288,5.36,12.73,47.84626,-54.09684
2020-05-22 12:29:01+00:00,328.5296,5.35,12.73,47.84626,-54.09684
2020-05-22 12:39:01+00:00,329.9797,5.35,12.73,47.84626,-54.09684
2020-05-22 12:49:01+00:00,323.5913,5.34,12.73,47.84626,-54.09684
2020-05-22 12:59:01+00:00,313.0246,5.36,12.73,47.84626,-54.09684
2020-05-22 13:09:01+00:00,314.4564,5.37,12.73,47.84626,-54.09684
2020-05-22 13:19:01+00:00,314.7296,5.37,13.29,47.84626,-54.09684
2020-05-22 13:29:01+00:00,305.9697,5.39,13.29,47.84626,-54.09684
2020-05-22 13:39:01+00:00,297.9781,5.39,13.29,47.84626,-54.09684
2020-05-22 13:49:01+00:00,298.723,5.39,13.29,47.84626,-54.09684
2020-05-22 13:59:01+00:00,299.9697,5.39,13.29,47.84626,-54.09684
2020-05-22 14:09:01+00:00,289.598,5.4,13.29,47.84626,-54.09684
2020-05-22 14:19:01+00:00,279.4531,5.39,13.68,47.84626,-54.09684
2020-05-22 14:29:01+00:00,278.7814,5.4,13.68,47.84626,-54.09684
2020-05-22 14:39:01+00:00,274.303,5.4,13.68,47.84626,-54.09684
2020-05-22 14:49:01+00:00,261.1064,5.4,13.68,47.84626,-54.09684
2020-05-22 14:59:01+00:00,256.95799999999997,5.4,13.68,47.84626,-54.09684
2020-05-22 15:09:01+00:00,256.9064,5.4,13.68,47.84626,-54.09684
2020-05-22 15:19:01+00:00,247.2197,5.4,14.56,47.84626,-54.09684
2020-05-22 15:29:01+00:00,232.2598,5.41,14.56,47.84626,-54.09684
2020-05-22 15:39:01+00:00,228.8014,5.42,14.56,47.84626,-54.09684
2020-05-22 15:49:01+00:00,224.6948,5.4,14.56,47.84626,-54.09684
2020-05-22 15:59:01+00:00,215.6615,5.44,14.56,47.84626,-54.09684
2020-05-22 16:09:01+00:00,210.4664,5.46,14.56,47.84626,-54.09684
2020-05-22 16:19:01+00:00,211.8247,5.4,14.48,47.84626,-54.09684
2020-05-22 16:29:01+00:00,208.1747,5.4,14.48,47.84626,-54.09684
2020-05-22 16:39:01+00:00,200.5781,5.4,14.48,47.84626,-54.09684
2020-05-22 16:49:01+00:00,199.3965,5.41,14.48,47.84626,-54.09684
2020-05-22 16:59:01+00:00,203.1814,5.4,14.48,47.84626,-54.09684
2020-05-22 17:09:01+00:00,199.3664,5.4,14.48,47.84626,-54.09684
2020-05-22 17:19:01+00:00,193.9598,5.43,14.24,47.84626,-54.09684
2020-05-22 17:29:01+00:00,199.9848,5.41,14.24,47.84626,-54.09684
2020-05-22 17:39:01+00:00,207.1598,5.43,14.24,47.84626,-54.09684
2020-05-22 17:49:01+00:00,200.5798,5.5,14.24,47.84626,-54.09684
2020-05-22 17:59:01+00:00,198.2398,5.58,14.24,47.84626,-54.09684
2020-05-22 18:09:01+00:00,206.3548,5.6,14.24,47.84626,-54.09684
2020-05-22 18:19:01+00:00,208.2598,5.69,14.16,47.84626,-54.09684
2020-05-22 18:29:01+00:00,208.5565,5.8,14.16,47.84626,-54.09684
2020-05-22 18:39:01+00:00,215.5781,5.8,14.16,47.84626,-54.09684
2020-05-22 18:49:01+00:00,222.2897,5.78,14.16,47.84626,-54.09684
2020-05-22 18:59:01+00:00,220.9815,5.93,14.16,47.84626,-54.09684
2020-05-22 19:09:01+00:00,221.7097,5.9,14.16,47.84626,-54.09684
2020-05-22 19:19:01+00:00,231.1164,5.74,14.0,47.84626,-54.09684
2020-05-22 19:29:01+00:00,239.7881,5.64,14.0,47.84626,-54.09684
2020-05-22 19:39:01+00:00,241.9565,5.86,14.0,47.84626,-54.09684
2020-05-22 19:49:01+00:00,244.8814,5.97,14.0,47.84626,-54.09684
2020-05-22 19:59:01+00:00,250.8997,5.9,14.0,47.84626,-54.09684
2020-05-22 20:09:01+00:00,258.9297,5.8,14.0,47.84626,-54.09684
2020-05-22 20:19:01+00:00,264.7398,5.88,13.84,47.84626,-54.09684
2020-05-22 20:29:01+00:00,268.9297,6.11,13.84,47.84626,-54.09684
2020-05-22 20:39:01+00:00,279.8714,6.2,13.84,47.84626,-54.09684
2020-05-22 20:49:01+00:00,289.413,6.0,13.84,47.84626,-54.09684
2020-05-22 20:59:01+00:00,290.348,6.18,13.84,47.84626,-54.09684
2020-05-22 21:09:01+00:00,291.953,6.25,13.84,47.84626,-54.09684
2020-05-22 21:19:01+00:00,300.5297,6.2,13.68,47.84626,-54.09684
2020-05-22 21:29:01+00:00,307.6014,6.19,13.68,47.84626,-54.09684
2020-05-22 21:39:01+00:00,310.4446,6.19,13.68,47.84626,-54.09684
2020-05-22 21:49:01+00:00,314.0963,6.18,13.68,47.84626,-54.09684
2020-05-22 21:59:01+00:00,319.8613,6.1,13.68,47.84626,-54.09684
2020-05-22 22:09:01+00:00,325.9814,6.1,13.68,47.84626,-54.09684
2020-05-22 22:19:01+00:00,330.6714,6.1,13.53,47.84626,-54.09684
2020-05-22 22:29:01+00:00,338.0546,6.1,13.53,47.84626,-54.09684
2020-05-22 22:39:01+00:00,345.6179,6.1,13.53,47.84626,-54.09684
2020-05-22 22:49:01+00:00,350.663,6.1,13.53,47.84626,-54.09684
2020-05-22 22:59:01+00:00,351.69800000000015,6.1,13.53,47.84626,-54.09684
2020-05-22 23:09:01+00:00,361.5846,6.1,13.53,47.84626,-54.09684
2020-05-22 23:19:01+00:00,365.4397,6.1,13.21,47.84626,-54.09684
2020-05-22 23:29:01+00:00,367.3746,6.1,13.21,47.84626,-54.09684
2020-05-22 23:39:01+00:00,368.4829,6.1,13.21,47.84626,-54.09684
2020-05-22 23:49:01+00:00,371.3896,6.09,13.21,47.84626,-54.09684
2020-05-22 23:59:01+00:00,369.1763,6.01,13.21,47.84626,-54.09684
